| time (UTC) | temp F | wind direction | speed MPH | gust MPH | rain 1hr in | rain 24hr in | rain mn in | humidity % | barometer mb |
| 20260506004538 | 62 | 248 | 3.0 | 8.0 | 0.00 | 0.12 | 0.00 | 84 | 1011.2 |
| 20260506003038 | 62 | 246 | 6.0 | 8.0 | 0.00 | 0.12 | 0.00 | 85 | 1011.3 |
| 20260506001537 | 62 | 247 | 3.0 | 5.0 | 0.00 | 0.12 | 0.00 | 84 | 1011.2 |
| 20260506000035 | 62 | 256 | 2.0 | 4.0 | 0.00 | 0.12 | 0.00 | 84 | 1011.2 |
| 20260505234532 | 62 | 359 | 2.0 | 7.0 | 0.00 | 0.12 | 0.00 | 83 | 1011.3 |
| 20260505233029 | 62 | 359 | 4.0 | 11.0 | 0.00 | 0.12 | 0.00 | 81 | 1011.4 |
| 20260505231541 | 63 | 225 | 4.0 | 9.0 | 0.00 | 0.12 | 0.00 | 79 | 1011.2 |
| 20260505230026 | 63 | 201 | 4.0 | 10.0 | 0.00 | 0.12 | 0.00 | 78 | 1011.0 |
| 20260505224555 | 63 | 207 | 6.0 | 10.0 | 0.00 | 0.12 | 0.00 | 77 | 1011.3 |
| 20260505223050 | 64 | 182 | 6.0 | 13.0 | 0.00 | 0.12 | 0.00 | 75 | 1011.4 |
| 20260505221517 | 65 | 206 | 7.0 | 16.0 | 0.00 | 0.12 | 0.00 | 74 | 1011.6 |
| 20260505220019 | 65 | 201 | 8.0 | 15.0 | 0.00 | 0.12 | 0.00 | 73 | 1011.6 |
| 20260505214511 | 66 | 206 | 10.0 | 14.0 | 0.00 | 0.12 | 0.00 | 71 | 1011.5 |
| 20260505213015 | 65 | 183 | 8.0 | 13.0 | 0.00 | 0.12 | 0.00 | 71 | 1011.5 |
| 20260505211509 | 65 | 187 | 6.0 | 13.0 | 0.00 | 0.12 | 0.00 | 73 | 1011.5 |
| 20260505210002 | 64 | 215 | 6.0 | 12.0 | 0.00 | 0.12 | 0.00 | 74 | 1011.6 |
| 20260505204556 | 64 | 199 | 7.0 | 14.0 | 0.00 | 0.12 | 0.00 | 75 | 1011.4 |
| 20260505203120 | 64 | 195 | 7.0 | 14.0 | 0.00 | 0.12 | 0.12 | 75 | 1011.4 |
| 20260505201602 | 64 | 206 | 7.0 | 14.0 | 0.00 | 0.12 | 0.12 | 76 | 1011.4 |
| 20260505200057 | 65 | 192 | 7.0 | 13.0 | 0.00 | 0.12 | 0.12 | 76 | 1011.3 |
| 20260505194553 | 65 | 178 | 7.0 | 12.0 | 0.00 | 0.12 | 0.12 | 76 | 1011.3 |
| 20260505193052 | 65 | 204 | 6.0 | 13.0 | 0.00 | 0.12 | 0.12 | 75 | 1011.1 |
| 20260505191602 | 66 | 197 | 11.0 | 17.0 | 0.00 | 0.12 | 0.12 | 74 | 1010.8 |
| 20260505190051 | 66 | 195 | 9.0 | 14.0 | 0.00 | 0.12 | 0.12 | 74 | 1010.8 |
| 20260505184549 | 66 | 170 | 6.0 | 12.0 | 0.00 | 0.12 | 0.12 | 75 | 1010.7 |
| 20260505183049 | 67 | 179 | 7.0 | 13.0 | 0.00 | 0.12 | 0.12 | 76 | 1010.8 |
| 20260505181550 | 67 | 173 | 7.0 | 11.0 | 0.00 | 0.12 | 0.12 | 73 | 1010.6 |
| 20260505180051 | 67 | 201 | 10.0 | 15.0 | 0.00 | 0.12 | 0.12 | 72 | 1010.7 |
| 20260505174547 | 67 | 191 | 7.0 | 10.0 | 0.00 | 0.12 | 0.12 | 77 | 1010.6 |
| 20260505173047 | 67 | 149 | 8.0 | 14.0 | 0.00 | 0.12 | 0.12 | 77 | 1010.8 |
| 20260505171547 | 67 | 150 | 10.0 | 15.0 | 0.00 | 0.12 | 0.12 | 76 | 1010.6 |
| 20260505164543 | 67 | 154 | 11.0 | 19.0 | 0.00 | 0.12 | 0.12 | 74 | 1010.4 |
| 20260505163042 | 67 | 126 | 10.0 | 17.0 | 0.00 | 0.12 | 0.12 | 76 | 1010.4 |
| 20260505161539 | 67 | 115 | 11.0 | 16.0 | 0.00 | 0.12 | 0.12 | 76 | 1010.6 |
| 20260505153036 | 67 | 129 | 10.0 | 15.0 | 0.00 | 0.12 | 0.12 | 76 | 1010.9 |
| 20260505151545 | 67 | 139 | 7.0 | 12.0 | 0.00 | 0.12 | 0.12 | 76 | 1011.0 |
| 20260505124511 | 65 | 115 | 12.0 | 22.0 | 0.00 | 0.12 | 0.12 | 77 | 1012.1 |
| 20260505123004 | 65 | 133 | 13.0 | 19.0 | 0.00 | 0.12 | 0.12 | 76 | 1012.2 |
| 20260505121507 | 64 | 145 | 15.0 | 21.0 | 0.00 | 0.12 | 0.12 | 76 | 1012.3 |
| 20260505120002 | 64 | 131 | 14.0 | 22.0 | 0.00 | 0.12 | 0.12 | 75 | 1012.4 |
| 20260505114501 | 64 | 121 | 14.0 | 20.0 | 0.00 | 0.12 | 0.12 | 75 | 1012.5 |
| 20260505113057 | 64 | 142 | 12.0 | 19.0 | 0.00 | 0.12 | 0.12 | 76 | 1012.8 |
| 20260505111557 | 64 | 139 | 13.0 | 19.0 | 0.00 | 0.12 | 0.12 | 76 | 1012.8 |
| 20260505101556 | 64 | 146 | 11.0 | 19.0 | 0.00 | 0.12 | 0.12 | 74 | 1013.0 |
| 20260505100057 | 63 | 127 | 11.0 | 18.0 | 0.00 | 0.12 | 0.12 | 74 | 1013.1 |
| 20260505094552 | 63 | 137 | 12.0 | 16.0 | 0.00 | 0.12 | 0.12 | 75 | 1013.2 |
| 20260505093049 | 63 | 117 | 9.0 | 17.0 | 0.00 | 0.12 | 0.12 | 77 | 1013.3 |
| 20260505091549 | 62 | 138 | 12.0 | 16.0 | 0.00 | 0.12 | 0.12 | 79 | 1013.3 |
| 20260505090100 | 61 | 131 | 11.0 | 15.0 | 0.00 | 0.12 | 0.12 | 82 | 1013.5 |
| 20260505084552 | 60 | 113 | 10.0 | 14.0 | 0.01 | 0.12 | 0.12 | 83 | 1013.5 |
| 20260505083050 | 59 | 128 | 11.0 | 16.0 | 0.04 | 0.12 | 0.12 | 84 | 1013.3 |
| 20260505081547 | 59 | 133 | 8.0 | 12.0 | 0.08 | 0.12 | 0.12 | 85 | 1013.5 |
| 20260505080043 | 58 | 135 | 10.0 | 14.0 | 0.11 | 0.12 | 0.12 | 84 | 1012.9 |
| 20260505074540 | 58 | 183 | 6.0 | 10.0 | 0.11 | 0.11 | 0.11 | 83 | 1013.4 |
| 20260505073039 | 58 | 160 | 6.0 | 10.0 | 0.08 | 0.08 | 0.08 | 81 | 1013.7 |
| 20260505071533 | 59 | 190 | 8.0 | 10.0 | 0.04 | 0.04 | 0.04 | 78 | 1013.7 |
| 20260505070031 | 61 | 181 | 7.0 | 11.0 | 0.01 | 0.01 | 0.01 | 74 | 1013.5 |
| 20260505064531 | 61 | 186 | 7.0 | 12.0 | 0.00 | 0.00 | 0.00 | 74 | 1013.4 |
| 20260505063029 | 61 | 143 | 5.0 | 11.0 | 0.00 | 0.00 | 0.00 | 74 | 1013.2 |
| 20260505061530 | 61 | 121 | 4.0 | 7.0 | 0.00 | 0.00 | 0.00 | 74 | 1013.0 |
| 20260505060032 | 60 | 152 | 4.0 | 7.0 | 0.00 | 0.00 | 0.00 | 74 | 1013.0 |
| 20260505054536 | 60 | 189 | 4.0 | 7.0 | 0.00 | 0.00 | 0.00 | 74 | 1013.2 |
| 20260505053027 | 60 | 170 | 8.0 | 13.0 | 0.00 | 0.00 | 0.00 | 73 | 1013.2 |
| 20260505051522 | 60 | 179 | 7.0 | 12.0 | 0.00 | 0.00 | 0.00 | 72 | 1013.2 |
| 20260505041508 | 63 | 189 | 6.0 | 8.0 | 0.00 | 0.00 | 0.00 | 62 | 1012.8 |
| 20260505040006 | 64 | 181 | 7.0 | 10.0 | 0.00 | 0.00 | 0.00 | 57 | 1012.8 |
| 20260505034505 | 64 | 199 | 4.0 | 8.0 | 0.00 | 0.00 | 0.00 | 56 | 1012.8 |
| 20260505033005 | 63 | 212 | 5.0 | 8.0 | 0.00 | 0.00 | 0.00 | 58 | 1013.0 |
| 20260505031600 | 64 | 195 | 4.0 | 6.0 | 0.00 | 0.00 | 0.00 | 58 | 1013.1 |
| 20260505030100 | 65 | 174 | 4.0 | 7.0 | 0.00 | 0.00 | 0.00 | 57 | 1013.0 |
| 20260505024609 | 66 | 226 | 4.0 | 10.0 | 0.00 | 0.00 | 0.00 | 53 | 1013.0 |
| 20260505023106 | 66 | 204 | 6.0 | 12.0 | 0.00 | 0.00 | 0.00 | 52 | 1013.2 |
| 20260505021556 | 66 | 222 | 6.0 | 9.0 | 0.00 | 0.00 | 0.00 | 53 | 1013.2 |
| 20260505020054 | 66 | 215 | 5.0 | 10.0 | 0.00 | 0.00 | 0.00 | 53 | 1013.4 |
| 20260505014553 | 66 | 210 | 5.0 | 11.0 | 0.00 | 0.00 | 0.00 | 53 | 1013.4 |
| 20260505013047 | 65 | 208 | 4.0 | 7.0 | 0.00 | 0.00 | 0.00 | 56 | 1013.5 |
| 20260505011551 | 64 | 223 | 5.0 | 7.0 | 0.00 | 0.00 | 0.00 | 59 | 1013.5 |
| 20260505010044 | 64 | 197 | 4.0 | 8.0 | 0.00 | 0.00 | 0.00 | 58 | 1013.7 |